Time,TemperatureF,DewpointF,PressureIn,WindDirection,WindDirectionDegrees,WindSpeedMPH,WindSpeedGustMPH,Humidity,HourlyPrecipIn,Conditions,Clouds,dailyrainin,SoftwareType,DateUTC
2013-06-19 00:02:00,68.5,68.2,29.88,West,270,1.0,2.0,99,0.00,,,0.45,meteohub,2013-06-19 04:02:00,
2013-06-19 00:06:00,68.5,68.2,29.88,West,270,1.0,2.0,99,0.00,,,0.00,meteohub,2013-06-19 04:06:00,
2013-06-19 00:09:00,68.2,67.8,29.88,West,270,0.0,2.0,99,0.00,,,0.00,meteohub,2013-06-19 04:09:00,
2013-06-19 00:12:00,68.2,67.8,29.88,West,270,0.0,2.0,99,0.00,,,0.00,meteohub,2013-06-19 04:12:00,
2013-06-19 00:17:00,68.0,67.6,29.88,NW,315,2.0,2.0,99,0.00,,,0.00,meteohub,2013-06-19 04:17:00,
2013-06-19 00:22:00,68.0,67.6,29.88,North,0,3.0,3.0,99,0.00,,,0.00,meteohub,2013-06-19 04:22:00,
2013-06-19 00:27:00,67.8,67.5,29.88,NW,315,1.0,3.0,99,0.00,,,0.00,meteohub,2013-06-19 04:27:00,
2013-06-19 00:32:00,67.6,67.3,29.89,NW,315,1.0,3.0,99,0.00,,,0.00,meteohub,2013-06-19 04:32:00,
2013-06-19 00:37:00,67.5,67.1,29.89,NW,315,0.0,3.0,99,0.00,,,0.00,meteohub,2013-06-19 04:37:00,
2013-06-19 00:42:00,67.5,67.1,29.89,NW,315,0.0,2.0,99,0.00,,,0.00,meteohub,2013-06-19 04:42:00,
2013-06-19 00:47:00,67.3,66.9,29.89,NW,315,0.0,2.0,99,0.01,,,0.01,meteohub,2013-06-19 04:47:00,
2013-06-19 00:52:00,67.1,66.7,29.89,NW,315,0.0,1.0,99,0.01,,,0.01,meteohub,2013-06-19 04:52:00,
2013-06-19 00:57:00,67.1,66.7,29.89,NW,315,0.0,1.0,99,0.01,,,0.01,meteohub,2013-06-19 04:57:00,
2013-06-19 01:02:00,66.9,66.6,29.89,NW,315,0.0,1.0,99,0.01,,,0.01,meteohub,2013-06-19 05:02:00,
2013-06-19 01:07:00,66.9,66.6,29.89,NW,315,0.0,0.0,99,0.01,,,0.01,meteohub,2013-06-19 05:07:00,
2013-06-19 01:12:00,66.9,66.6,29.88,NW,315,0.0,1.0,99,0.01,,,0.01,meteohub,2013-06-19 05:12:00,
2013-06-19 01:17:00,66.9,66.6,29.88,NW,315,0.0,1.0,99,0.01,,,0.01,meteohub,2013-06-19 05:17:00,
2013-06-19 01:22:00,66.9,66.6,29.88,NW,315,0.0,1.0,99,0.01,,,0.01,meteohub,2013-06-19 05:22:00,
2013-06-19 01:27:00,66.9,66.6,29.88,NW,315,0.0,0.0,99,0.01,,,0.01,meteohub,2013-06-19 05:27:00,
2013-06-19 01:34:00,66.9,66.6,29.88,NW,315,2.0,0.0,99,0.01,,,0.01,meteohub,2013-06-19 05:34:00,
2013-06-19 01:40:00,66.7,66.4,29.88,NE,45,0.0,0.0,99,0.01,,,0.01,meteohub,2013-06-19 05:40:00,
2013-06-19 01:46:00,66.7,66.4,29.89,NE,45,0.0,2.0,99,0.00,,,0.01,meteohub,2013-06-19 05:46:00,
2013-06-19 01:52:00,66.7,66.4,29.89,NE,45,1.0,1.0,99,0.00,,,0.01,meteohub,2013-06-19 05:52:00,
2013-06-19 01:57:00,66.7,66.4,29.89,NE,45,0.0,1.0,99,0.00,,,0.01,meteohub,2013-06-19 05:57:00,
2013-06-19 02:02:00,66.7,66.4,29.89,NE,45,0.0,1.0,99,0.00,,,0.01,meteohub,2013-06-19 06:02:00,
2013-06-19 02:07:00,66.7,66.4,29.89,NE,45,0.0,1.0,99,0.00,,,0.01,meteohub,2013-06-19 06:07:00,
2013-06-19 02:12:00,66.7,66.4,29.89,NE,45,0.0,1.0,99,0.00,,,0.01,meteohub,2013-06-19 06:12:00,
2013-06-19 02:17:00,66.7,66.4,29.89,NE,45,0.0,1.0,99,0.00,,,0.01,meteohub,2013-06-19 06:17:00,
2013-06-19 02:22:00,66.7,66.4,29.89,NE,45,0.0,1.0,99,0.00,,,0.01,meteohub,2013-06-19 06:22:00,
2013-06-19 02:27:00,66.7,66.4,29.89,NE,45,0.0,1.0,99,0.00,,,0.01,meteohub,2013-06-19 06:27:00,
2013-06-19 02:32:00,66.6,66.2,29.89,NE,45,0.0,0.0,99,0.00,,,0.01,meteohub,2013-06-19 06:32:00,
2013-06-19 02:37:00,66.6,66.2,29.88,NE,45,0.0,0.0,99,0.00,,,0.01,meteohub,2013-06-19 06:37:00,
2013-06-19 02:42:00,66.6,66.2,29.89,NE,45,0.0,0.0,99,0.00,,,0.01,meteohub,2013-06-19 06:42:00,
2013-06-19 02:47:00,66.6,66.2,29.89,NE,45,0.0,0.0,99,0.00,,,0.01,meteohub,2013-06-19 06:47:00,
2013-06-19 02:52:00,66.6,66.2,29.88,NE,45,0.0,0.0,99,0.00,,,0.01,meteohub,2013-06-19 06:52:00,
2013-06-19 02:57:00,66.4,66.0,29.88,NE,45,0.0,0.0,99,0.00,,,0.01,meteohub,2013-06-19 06:57:00,
2013-06-19 03:02:00,66.4,66.0,29.89,NE,45,0.0,0.0,99,0.00,,,0.01,meteohub,2013-06-19 07:02:00,
2013-06-19 03:07:00,66.0,65.7,29.89,NE,45,0.0,0.0,99,0.00,,,0.01,meteohub,2013-06-19 07:07:00,
2013-06-19 03:12:00,65.8,65.5,29.89,NE,45,0.0,0.0,99,0.00,,,0.01,meteohub,2013-06-19 07:12:00,
2013-06-19 03:17:00,65.8,65.5,29.89,NE,45,0.0,0.0,99,0.00,,,0.01,meteohub,2013-06-19 07:17:00,
2013-06-19 03:22:00,65.7,65.3,29.89,NE,45,0.0,0.0,99,0.00,,,0.01,meteohub,2013-06-19 07:22:00,
2013-06-19 03:27:00,65.5,65.1,29.89,NE,45,0.0,0.0,99,0.00,,,0.01,meteohub,2013-06-19 07:27:00,
2013-06-19 03:32:00,65.3,64.9,29.89,NE,45,0.0,0.0,99,0.00,,,0.01,meteohub,2013-06-19 07:32:00,
2013-06-19 03:37:00,65.1,64.8,29.89,NE,45,0.0,0.0,99,0.00,,,0.01,meteohub,2013-06-19 07:37:00,
2013-06-19 03:42:00,64.9,64.6,29.90,NE,45,0.0,0.0,99,0.00,,,0.01,meteohub,2013-06-19 07:42:00,
2013-06-19 03:47:00,64.8,64.4,29.90,NE,45,0.0,0.0,99,0.00,,,0.01,meteohub,2013-06-19 07:47:00,
2013-06-19 03:52:00,64.6,64.2,29.89,NE,45,0.0,0.0,99,0.00,,,0.01,meteohub,2013-06-19 07:52:00,
2013-06-19 03:57:00,64.4,64.0,29.89,NE,45,0.0,0.0,99,0.00,,,0.01,meteohub,2013-06-19 07:57:00,
2013-06-19 04:05:00,64.2,63.9,29.89,NE,45,0.0,0.0,99,0.00,,,0.01,meteohub,2013-06-19 08:05:00,
2013-06-19 04:11:00,64.0,63.7,29.90,NE,45,0.0,0.0,99,0.00,,,0.01,meteohub,2013-06-19 08:11:00,
2013-06-19 04:17:00,63.9,63.5,29.90,NE,45,0.0,0.0,99,0.00,,,0.01,meteohub,2013-06-19 08:17:00,
2013-06-19 04:22:00,63.9,63.5,29.90,NE,45,0.0,0.0,99,0.00,,,0.01,meteohub,2013-06-19 08:22:00,
2013-06-19 04:27:00,63.7,63.3,29.90,NE,45,0.0,0.0,99,0.00,,,0.01,meteohub,2013-06-19 08:27:00,
2013-06-19 04:32:00,63.7,63.3,29.90,NE,45,0.0,0.0,99,0.00,,,0.01,meteohub,2013-06-19 08:32:00,
2013-06-19 04:37:00,63.7,63.3,29.90,NE,45,0.0,0.0,99,0.00,,,0.01,meteohub,2013-06-19 08:37:00,
2013-06-19 04:42:00,63.5,63.1,29.90,NE,45,0.0,0.0,99,0.00,,,0.01,meteohub,2013-06-19 08:42:00,
2013-06-19 04:47:00,63.3,63.0,29.90,NE,45,0.0,0.0,99,0.00,,,0.01,meteohub,2013-06-19 08:47:00,
2013-06-19 04:53:00,63.3,63.0,29.90,NE,45,0.0,0.0,99,0.00,,,0.01,meteohub,2013-06-19 08:53:00,
2013-06-19 04:59:00,63.1,62.8,29.91,NE,45,0.0,0.0,99,0.00,,,0.01,meteohub,2013-06-19 08:59:00,
2013-06-19 05:05:00,63.1,62.8,29.90,NE,45,0.0,0.0,99,0.00,,,0.01,meteohub,2013-06-19 09:05:00,
2013-06-19 05:11:00,62.8,62.4,29.90,NE,45,0.0,0.0,99,0.00,,,0.01,meteohub,2013-06-19 09:11:00,
2013-06-19 05:17:00,62.6,62.2,29.91,NE,45,0.0,0.0,99,0.00,,,0.01,meteohub,2013-06-19 09:17:00,
2013-06-19 05:22:00,62.6,62.2,29.91,NE,45,0.0,0.0,99,0.00,,,0.01,meteohub,2013-06-19 09:22:00,
2013-06-19 05:27:00,62.6,62.2,29.91,NE,45,0.0,0.0,99,0.00,,,0.01,meteohub,2013-06-19 09:27:00,
2013-06-19 05:32:00,62.4,62.1,29.91,NE,45,0.0,0.0,99,0.00,,,0.01,meteohub,2013-06-19 09:32:00,
2013-06-19 05:37:00,62.2,61.9,29.91,NE,45,0.0,0.0,99,0.00,,,0.01,meteohub,2013-06-19 09:37:00,
2013-06-19 05:42:00,62.2,61.9,29.91,NE,45,0.0,0.0,99,0.00,,,0.01,meteohub,2013-06-19 09:42:00,
2013-06-19 05:47:00,62.2,61.9,29.92,NE,45,0.0,0.0,99,0.00,,,0.01,meteohub,2013-06-19 09:47:00,
2013-06-19 05:52:00,62.1,61.7,29.92,NE,45,0.0,0.0,99,0.00,,,0.01,meteohub,2013-06-19 09:52:00,
2013-06-19 05:57:00,62.1,61.7,29.92,NE,45,0.0,0.0,99,0.00,,,0.01,meteohub,2013-06-19 09:57:00,
2013-06-19 06:02:00,62.1,61.7,29.93,NE,45,0.0,0.0,99,0.00,,,0.01,meteohub,2013-06-19 10:02:00,
2013-06-19 06:07:00,62.1,61.7,29.93,NE,45,0.0,0.0,99,0.00,,,0.01,meteohub,2013-06-19 10:07:00,
2013-06-19 06:12:00,62.1,61.7,29.93,NE,45,0.0,0.0,99,0.00,,,0.01,meteohub,2013-06-19 10:12:00,
2013-06-19 06:17:00,61.9,61.5,29.93,NE,45,0.0,0.0,99,0.00,,,0.01,meteohub,2013-06-19 10:17:00,
2013-06-19 06:22:00,61.9,61.5,29.94,NE,45,0.0,0.0,99,0.00,,,0.01,meteohub,2013-06-19 10:22:00,
2013-06-19 06:27:00,61.9,61.5,29.94,NE,45,0.0,0.0,99,0.00,,,0.01,meteohub,2013-06-19 10:27:00,
2013-06-19 06:32:00,61.9,61.5,29.94,NE,45,0.0,0.0,99,0.00,,,0.01,meteohub,2013-06-19 10:32:00,
2013-06-19 06:37:00,61.7,61.3,29.94,NE,45,0.0,0.0,99,0.00,,,0.01,meteohub,2013-06-19 10:37:00,
2013-06-19 06:42:00,61.7,61.3,29.94,NE,45,0.0,0.0,99,0.00,,,0.01,meteohub,2013-06-19 10:42:00,
2013-06-19 06:47:00,61.7,61.3,29.94,NE,45,0.0,0.0,99,0.00,,,0.01,meteohub,2013-06-19 10:47:00,
2013-06-19 06:52:00,61.9,61.5,29.95,NE,45,0.0,0.0,99,0.00,,,0.01,meteohub,2013-06-19 10:52:00,
2013-06-19 06:57:00,62.1,61.7,29.96,NE,45,0.0,0.0,99,0.00,,,0.01,meteohub,2013-06-19 10:57:00,
2013-06-19 07:02:00,62.2,61.9,29.96,NE,45,0.0,0.0,99,0.00,,,0.01,meteohub,2013-06-19 11:02:00,
2013-06-19 07:07:00,62.2,61.9,29.96,NE,45,0.0,0.0,99,0.00,,,0.01,meteohub,2013-06-19 11:07:00,
2013-06-19 07:12:00,62.4,62.1,29.96,NE,45,0.0,0.0,99,0.00,,,0.01,meteohub,2013-06-19 11:12:00,
2013-06-19 07:17:00,62.6,62.2,29.96,NE,45,0.0,0.0,99,0.00,,,0.01,meteohub,2013-06-19 11:17:00,
2013-06-19 07:22:00,62.6,62.2,29.97,NE,45,0.0,0.0,99,0.00,,,0.01,meteohub,2013-06-19 11:22:00,
2013-06-19 07:27:00,62.8,62.4,29.96,NE,45,0.0,0.0,99,0.00,,,0.01,meteohub,2013-06-19 11:27:00,
2013-06-19 07:32:00,63.1,62.8,29.96,NE,45,0.0,0.0,99,0.00,,,0.01,meteohub,2013-06-19 11:32:00,
2013-06-19 07:37:00,63.3,63.0,29.97,NE,45,0.0,0.0,99,0.00,,,0.01,meteohub,2013-06-19 11:37:00,
2013-06-19 07:42:00,63.7,63.3,29.97,NE,45,0.0,0.0,99,0.00,,,0.01,meteohub,2013-06-19 11:42:00,
2013-06-19 07:47:00,64.4,64.0,29.98,West,270,2.0,2.0,99,0.00,,,0.01,meteohub,2013-06-19 11:47:00,
2013-06-19 07:52:00,64.9,64.6,29.97,NW,315,1.0,2.0,99,0.00,,,0.01,meteohub,2013-06-19 11:52:00,
2013-06-19 07:57:00,65.1,64.8,29.97,NW,315,0.0,2.0,99,0.00,,,0.01,meteohub,2013-06-19 11:57:00,
2013-06-19 08:02:00,65.3,64.9,29.97,NW,315,0.0,2.0,99,0.00,,,0.01,meteohub,2013-06-19 12:02:00,
2013-06-19 08:07:00,65.7,65.3,29.98,SW,225,2.0,2.0,99,0.00,,,0.01,meteohub,2013-06-19 12:07:00,
2013-06-19 08:12:00,66.0,65.7,29.98,NW,315,2.0,2.0,99,0.00,,,0.01,meteohub,2013-06-19 12:12:00,
2013-06-19 08:17:00,66.4,66.0,29.97,SW,225,2.0,2.0,99,0.00,,,0.01,meteohub,2013-06-19 12:17:00,
2013-06-19 08:22:00,66.7,66.4,29.97,SW,225,1.0,2.0,99,0.00,,,0.01,meteohub,2013-06-19 12:22:00,
2013-06-19 08:27:00,67.3,66.9,29.98,SE,135,2.0,3.0,99,0.00,,,0.01,meteohub,2013-06-19 12:27:00,
2013-06-19 08:32:00,67.5,67.1,29.98,SE,135,1.0,3.0,99,0.00,,,0.01,meteohub,2013-06-19 12:32:00,
2013-06-19 08:37:00,67.8,67.5,29.99,SW,225,1.0,3.0,99,0.00,,,0.01,meteohub,2013-06-19 12:37:00,
2013-06-19 08:42:00,68.0,67.6,29.98,West,270,1.0,2.0,99,0.00,,,0.01,meteohub,2013-06-19 12:42:00,
2013-06-19 08:47:00,68.4,68.0,29.99,NW,315,3.0,3.0,99,0.00,,,0.01,meteohub,2013-06-19 12:47:00,
2013-06-19 08:52:00,68.7,68.4,29.99,West,270,2.0,3.0,99,0.00,,,0.01,meteohub,2013-06-19 12:52:00,
2013-06-19 08:57:00,69.1,68.7,29.99,SE,135,3.0,3.0,99,0.00,,,0.01,meteohub,2013-06-19 12:57:00,
2013-06-19 09:02:00,69.3,68.9,30.00,WNW,293,2.0,4.0,99,0.00,,,0.01,meteohub,2013-06-19 13:02:00,
2013-06-19 09:07:00,69.8,69.4,30.00,West,270,0.0,4.0,99,0.00,,,0.01,meteohub,2013-06-19 13:07:00,
2013-06-19 09:12:00,70.2,69.8,30.00,SE,135,2.0,4.0,99,0.00,,,0.01,meteohub,2013-06-19 13:12:00,
2013-06-19 09:17:00,70.5,70.2,30.01,NE,45,2.0,3.0,99,0.00,,,0.01,meteohub,2013-06-19 13:17:00,
2013-06-19 09:22:00,71.1,70.7,30.01,NW,315,2.0,3.0,99,0.00,,,0.01,meteohub,2013-06-19 13:22:00,
2013-06-19 09:27:00,71.8,71.4,30.00,NE,45,2.0,3.0,99,0.00,,,0.01,meteohub,2013-06-19 13:27:00,
2013-06-19 09:32:00,72.1,71.6,30.01,SE,135,2.0,4.0,98,0.00,,,0.01,meteohub,2013-06-19 13:32:00,
2013-06-19 09:37:00,72.3,71.1,30.01,NW,315,3.0,4.0,96,0.00,,,0.01,meteohub,2013-06-19 13:37:00,
2013-06-19 09:42:00,72.9,71.1,30.01,South,180,2.0,4.0,94,0.00,,,0.01,meteohub,2013-06-19 13:42:00,
2013-06-19 09:47:00,73.8,71.6,30.00,North,0,4.0,4.0,93,0.00,,,0.01,meteohub,2013-06-19 13:47:00,
2013-06-19 09:52:00,74.1,71.6,30.00,SE,135,1.0,4.0,92,0.00,,,0.01,meteohub,2013-06-19 13:52:00,
2013-06-19 09:57:00,74.3,70.9,30.01,SE,135,2.0,4.0,89,0.00,,,0.01,meteohub,2013-06-19 13:57:00,
2013-06-19 10:02:00,74.5,70.3,30.01,SE,135,2.0,4.0,87,0.00,,,0.01,meteohub,2013-06-19 14:02:00,
2013-06-19 10:07:00,74.8,70.3,30.01,NW,315,4.0,4.0,86,0.00,,,0.01,meteohub,2013-06-19 14:07:00,
2013-06-19 10:12:00,75.2,70.3,30.00,NW,315,3.0,4.0,85,0.00,,,0.01,meteohub,2013-06-19 14:12:00,
2013-06-19 10:17:00,75.2,70.3,30.01,SE,135,2.0,4.0,85,0.00,,,0.01,meteohub,2013-06-19 14:17:00,
2013-06-19 10:22:00,74.8,69.3,30.01,SE,135,2.0,4.0,83,0.00,,,0.01,meteohub,2013-06-19 14:22:00,
2013-06-19 10:27:00,75.2,70.0,30.01,West,270,2.0,4.0,84,0.00,,,0.01,meteohub,2013-06-19 14:27:00,
2013-06-19 10:32:00,75.6,69.6,30.01,West,270,3.0,4.0,82,0.00,,,0.01,meteohub,2013-06-19 14:32:00,
2013-06-19 10:37:00,75.9,69.3,30.01,East,90,2.0,4.0,80,0.00,,,0.01,meteohub,2013-06-19 14:37:00,
2013-06-19 10:42:00,76.6,69.6,30.01,NE,45,3.0,4.0,79,0.00,,,0.01,meteohub,2013-06-19 14:42:00,
2013-06-19 10:47:00,76.5,68.4,30.01,NW,315,4.0,4.0,76,0.00,,,0.01,meteohub,2013-06-19 14:47:00,
2013-06-19 10:52:00,76.6,69.3,30.01,SE,135,2.0,4.0,78,0.00,,,0.01,meteohub,2013-06-19 14:52:00,
2013-06-19 10:57:00,76.6,69.3,30.01,North,0,2.0,4.0,78,0.00,,,0.01,meteohub,2013-06-19 14:57:00,
2013-06-19 11:02:00,76.6,70.0,30.01,North,0,1.0,4.0,80,0.00,,,0.01,meteohub,2013-06-19 15:02:00,
2013-06-19 11:07:00,76.6,69.3,30.02,NE,45,2.0,5.0,78,0.00,,,0.01,meteohub,2013-06-19 15:07:00,
2013-06-19 11:12:00,77.0,68.9,30.01,NW,315,1.0,5.0,76,0.00,,,0.01,meteohub,2013-06-19 15:12:00,
2013-06-19 11:17:00,77.4,69.6,30.02,NW,315,2.0,5.0,77,0.00,,,0.01,meteohub,2013-06-19 15:17:00,
2013-06-19 11:22:00,77.4,67.6,30.02,SW,225,4.0,4.0,72,0.00,,,0.01,meteohub,2013-06-19 15:22:00,
2013-06-19 11:27:00,76.8,67.8,30.02,North,0,2.0,4.0,74,0.00,,,0.01,meteohub,2013-06-19 15:27:00,
2013-06-19 11:32:00,77.0,70.0,30.02,North,0,2.0,4.0,79,0.00,,,0.01,meteohub,2013-06-19 15:32:00,
2013-06-19 11:37:00,76.8,68.7,30.02,NW,315,4.0,4.0,76,0.00,,,0.01,meteohub,2013-06-19 15:37:00,
2013-06-19 11:42:00,77.0,67.6,30.02,SE,135,3.0,4.0,73,0.00,,,0.01,meteohub,2013-06-19 15:42:00,
2013-06-19 11:47:00,77.5,68.5,30.02,SW,225,3.0,6.0,74,0.00,,,0.01,meteohub,2013-06-19 15:47:00,
2013-06-19 11:52:00,77.9,68.5,30.03,NW,315,2.0,6.0,73,0.00,,,0.01,meteohub,2013-06-19 15:52:00,
2013-06-19 11:57:00,78.1,67.8,30.02,West,270,2.0,6.0,71,0.00,,,0.01,meteohub,2013-06-19 15:57:00,
2013-06-19 12:02:00,78.3,68.0,30.03,North,0,2.0,5.0,71,0.00,,,0.01,meteohub,2013-06-19 16:02:00,
2013-06-19 12:07:00,78.1,66.7,30.03,East,90,2.0,6.0,68,0.00,,,0.01,meteohub,2013-06-19 16:07:00,
2013-06-19 12:12:00,78.1,67.8,30.03,North,0,3.0,6.0,71,0.00,,,0.01,meteohub,2013-06-19 16:12:00,
2013-06-19 12:17:00,78.1,68.7,30.03,SE,135,2.0,8.0,73,0.00,,,0.01,meteohub,2013-06-19 16:17:00,
2013-06-19 12:22:00,78.4,68.7,30.03,NNW,338,2.0,8.0,72,0.00,,,0.01,meteohub,2013-06-19 16:22:00,
2013-06-19 12:27:00,78.8,68.5,30.03,NE,45,2.0,8.0,71,0.00,,,0.01,meteohub,2013-06-19 16:27:00,
2013-06-19 12:32:00,79.3,68.7,30.03,East,90,2.0,4.0,70,0.00,,,0.01,meteohub,2013-06-19 16:32:00,
2013-06-19 12:37:00,79.7,67.8,30.04,NE,45,4.0,5.0,67,0.00,,,0.01,meteohub,2013-06-19 16:37:00,
2013-06-19 12:42:00,79.9,68.7,30.04,NW,315,5.0,5.0,69,0.00,,,0.01,meteohub,2013-06-19 16:42:00,
2013-06-19 12:47:00,79.7,66.9,30.03,NW,315,4.0,5.0,65,0.00,,,0.01,meteohub,2013-06-19 16:47:00,
2013-06-19 12:52:00,79.3,66.9,30.03,NW,315,3.0,5.0,66,0.00,,,0.01,meteohub,2013-06-19 16:52:00,
2013-06-19 12:57:00,79.2,66.4,30.03,West,270,6.0,6.0,65,0.00,,,0.01,meteohub,2013-06-19 16:57:00,
2013-06-19 13:02:00,79.0,66.6,30.03,NW,315,3.0,6.0,66,0.00,,,0.01,meteohub,2013-06-19 17:02:00,
2013-06-19 13:07:00,78.8,67.3,30.04,NW,315,2.0,6.0,68,0.00,,,0.01,meteohub,2013-06-19 17:07:00,
2013-06-19 13:12:00,78.6,65.8,30.04,North,0,3.0,6.0,65,0.00,,,0.01,meteohub,2013-06-19 17:12:00,
2013-06-19 13:17:00,78.8,67.3,30.03,East,90,2.0,4.0,68,0.00,,,0.01,meteohub,2013-06-19 17:17:00,
2013-06-19 13:22:00,79.7,69.4,30.04,East,90,2.0,4.0,71,0.00,,,0.01,meteohub,2013-06-19 17:22:00,
2013-06-19 13:27:00,80.1,68.2,30.04,North,0,4.0,4.0,67,0.00,,,0.01,meteohub,2013-06-19 17:27:00,
2013-06-19 13:32:00,80.1,66.7,30.04,West,270,3.0,4.0,64,0.00,,,0.01,meteohub,2013-06-19 17:32:00,
2013-06-19 13:37:00,80.2,67.5,30.04,North,0,2.0,4.0,65,0.00,,,0.01,meteohub,2013-06-19 17:37:00,
2013-06-19 13:42:00,80.4,67.1,30.04,North,0,4.0,4.0,64,0.00,,,0.01,meteohub,2013-06-19 17:42:00,
2013-06-19 13:47:00,80.8,67.5,30.04,SW,225,3.0,5.0,64,0.00,,,0.01,meteohub,2013-06-19 17:47:00,
2013-06-19 13:52:00,80.2,67.5,30.04,West,270,1.0,5.0,65,0.00,,,0.01,meteohub,2013-06-19 17:52:00,
2013-06-19 13:57:00,80.1,67.6,30.04,West,270,3.0,5.0,66,0.00,,,0.01,meteohub,2013-06-19 17:57:00,
2013-06-19 14:02:00,80.2,67.5,30.04,East,90,4.0,4.0,65,0.00,,,0.01,meteohub,2013-06-19 18:02:00,
2013-06-19 14:07:00,79.7,66.9,30.04,NE,45,2.0,4.0,65,0.00,,,0.01,meteohub,2013-06-19 18:07:00,
2013-06-19 14:12:00,79.2,67.3,30.04,NW,315,2.0,4.0,67,0.00,,,0.01,meteohub,2013-06-19 18:12:00,
2013-06-19 14:17:00,79.0,67.1,30.04,NW,315,3.0,4.0,67,0.00,,,0.01,meteohub,2013-06-19 18:17:00,
2013-06-19 14:22:00,79.2,67.6,30.05,NW,315,4.0,4.0,68,0.00,,,0.01,meteohub,2013-06-19 18:22:00,
2013-06-19 14:27:00,79.5,68.5,30.05,North,0,3.0,4.0,69,0.00,,,0.01,meteohub,2013-06-19 18:27:00,
2013-06-19 14:32:00,79.9,66.2,30.04,NW,315,5.0,5.0,63,0.00,,,0.01,meteohub,2013-06-19 18:32:00,
2013-06-19 14:37:00,79.9,67.5,30.04,East,90,2.0,5.0,66,0.00,,,0.01,meteohub,2013-06-19 18:37:00,
2013-06-19 14:42:00,79.5,65.8,30.04,West,270,8.0,8.0,63,0.00,,,0.01,meteohub,2013-06-19 18:42:00,
2013-06-19 14:47:00,79.5,65.8,30.04,NW,315,4.0,8.0,63,0.00,,,0.01,meteohub,2013-06-19 18:47:00,
2013-06-19 14:52:00,80.1,68.2,30.04,North,0,2.0,8.0,67,0.00,,,0.01,meteohub,2013-06-19 18:52:00,
2013-06-19 14:57:00,80.6,67.3,30.04,North,0,4.0,8.0,64,0.00,,,0.01,meteohub,2013-06-19 18:57:00,
2013-06-19 15:02:00,80.8,66.6,30.04,North,0,5.0,6.0,62,0.00,,,0.01,meteohub,2013-06-19 19:02:00,
2013-06-19 15:07:00,81.0,66.7,30.04,West,270,5.0,5.0,62,0.00,,,0.01,meteohub,2013-06-19 19:07:00,
2013-06-19 15:12:00,80.8,67.5,30.04,SW,225,4.0,5.0,64,0.00,,,0.01,meteohub,2013-06-19 19:12:00,
2013-06-19 15:17:00,80.6,68.2,30.04,West,270,2.0,5.0,66,0.00,,,0.01,meteohub,2013-06-19 19:17:00,
2013-06-19 15:22:00,80.1,66.7,30.04,North,0,1.0,5.0,64,0.00,,,0.01,meteohub,2013-06-19 19:22:00,
2013-06-19 15:27:00,80.1,67.3,30.04,South,180,4.0,4.0,65,0.00,,,0.01,meteohub,2013-06-19 19:27:00,
2013-06-19 15:32:00,79.9,67.5,30.04,North,0,2.0,4.0,66,0.00,,,0.01,meteohub,2013-06-19 19:32:00,
2013-06-19 15:37:00,80.1,67.6,30.04,NW,315,4.0,4.0,66,0.00,,,0.01,meteohub,2013-06-19 19:37:00,
2013-06-19 15:42:00,79.9,67.5,30.04,East,90,3.0,4.0,66,0.00,,,0.01,meteohub,2013-06-19 19:42:00,
2013-06-19 15:47:00,79.5,66.7,30.04,NW,315,2.0,4.0,65,0.00,,,0.01,meteohub,2013-06-19 19:47:00,
2013-06-19 15:52:00,79.9,66.6,30.04,East,90,4.0,4.0,64,0.00,,,0.01,meteohub,2013-06-19 19:52:00,
2013-06-19 15:57:00,80.1,68.2,30.04,West,270,2.0,4.0,67,0.00,,,0.01,meteohub,2013-06-19 19:57:00,
2013-06-19 16:02:00,80.1,68.5,30.04,South,180,2.0,4.0,68,0.00,,,0.01,meteohub,2013-06-19 20:02:00,
2013-06-19 16:07:00,80.6,67.3,30.04,NE,45,4.0,4.0,64,0.00,,,0.01,meteohub,2013-06-19 20:07:00,
2013-06-19 16:12:00,80.4,67.6,30.04,East,90,2.0,4.0,65,0.00,,,0.01,meteohub,2013-06-19 20:12:00,
2013-06-19 16:17:00,79.9,67.1,30.04,South,180,2.0,8.0,65,0.00,,,0.01,meteohub,2013-06-19 20:17:00,
2013-06-19 16:22:00,79.5,65.3,30.03,West,270,4.0,8.0,62,0.00,,,0.01,meteohub,2013-06-19 20:22:00,
2013-06-19 16:27:00,79.3,66.9,30.03,NW,315,1.0,8.0,66,0.00,,,0.01,meteohub,2013-06-19 20:27:00,
2013-06-19 16:32:00,78.6,67.1,30.03,NNW,338,4.0,5.0,68,0.00,,,0.01,meteohub,2013-06-19 20:32:00,
2013-06-19 16:37:00,78.3,66.7,30.03,West,270,2.0,5.0,68,0.00,,,0.01,meteohub,2013-06-19 20:37:00,
2013-06-19 16:42:00,78.4,67.8,30.03,South,180,2.0,5.0,70,0.00,,,0.01,meteohub,2013-06-19 20:42:00,
2013-06-19 16:47:00,78.6,68.0,30.03,ENE,68,6.0,6.0,70,0.00,,,0.01,meteohub,2013-06-19 20:47:00,
2013-06-19 16:52:00,79.2,68.2,30.03,SE,135,2.0,6.0,69,0.00,,,0.01,meteohub,2013-06-19 20:52:00,
2013-06-19 16:57:00,79.2,68.9,30.03,NW,315,4.0,6.0,71,0.00,,,0.01,meteohub,2013-06-19 20:57:00,
2013-06-19 17:02:00,79.2,68.2,30.04,SE,135,4.0,6.0,69,0.00,,,0.01,meteohub,2013-06-19 21:02:00,
2013-06-19 17:07:00,78.6,67.1,30.04,SW,225,4.0,5.0,68,0.00,,,0.01,meteohub,2013-06-19 21:07:00,
2013-06-19 17:12:00,78.8,67.8,30.04,SE,135,2.0,5.0,69,0.00,,,0.01,meteohub,2013-06-19 21:12:00,
2013-06-19 17:17:00,78.6,67.1,30.04,North,0,2.0,5.0,68,0.00,,,0.01,meteohub,2013-06-19 21:17:00,
2013-06-19 17:22:00,78.4,69.4,30.04,North,0,3.0,5.0,74,0.00,,,0.01,meteohub,2013-06-19 21:22:00,
2013-06-19 17:27:00,78.3,68.5,30.04,North,0,2.0,4.0,72,0.00,,,0.01,meteohub,2013-06-19 21:27:00,
2013-06-19 17:32:00,78.4,66.6,30.04,West,270,4.0,4.0,67,0.00,,,0.01,meteohub,2013-06-19 21:32:00,
2013-06-19 17:37:00,78.3,66.7,30.04,West,270,2.0,4.0,68,0.00,,,0.01,meteohub,2013-06-19 21:37:00,
2013-06-19 17:42:00,78.1,66.7,30.04,NW,315,2.0,5.0,68,0.00,,,0.01,meteohub,2013-06-19 21:42:00,
2013-06-19 17:47:00,77.9,66.9,30.03,East,90,4.0,5.0,69,0.00,,,0.01,meteohub,2013-06-19 21:47:00,
2013-06-19 17:52:00,77.2,67.5,30.04,SE,135,1.0,5.0,72,0.00,,,0.01,meteohub,2013-06-19 21:52:00,
2013-06-19 17:57:00,76.3,67.5,30.04,North,0,2.0,5.0,74,0.00,,,0.01,meteohub,2013-06-19 21:57:00,
2013-06-19 18:02:00,75.7,67.3,30.04,North,0,1.0,4.0,75,0.00,,,0.01,meteohub,2013-06-19 22:02:00,
2013-06-19 18:07:00,75.6,67.8,30.05,North,0,2.0,2.0,77,0.00,,,0.01,meteohub,2013-06-19 22:07:00,
2013-06-19 18:12:00,75.6,67.8,30.04,NE,45,2.0,2.0,77,0.00,,,0.01,meteohub,2013-06-19 22:12:00,
2013-06-19 18:17:00,75.6,68.2,30.04,SW,225,1.0,2.0,78,0.00,,,0.01,meteohub,2013-06-19 22:17:00,
2013-06-19 18:22:00,75.4,67.3,30.05,NE,45,2.0,2.0,76,0.00,,,0.01,meteohub,2013-06-19 22:22:00,
2013-06-19 18:27:00,75.4,68.0,30.05,NE,45,2.0,3.0,78,0.00,,,0.01,meteohub,2013-06-19 22:27:00,
2013-06-19 18:32:00,75.4,68.4,30.05,SW,225,1.0,3.0,79,0.00,,,0.01,meteohub,2013-06-19 22:32:00,
2013-06-19 18:37:00,75.4,68.0,30.05,NW,315,2.0,3.0,78,0.00,,,0.01,meteohub,2013-06-19 22:37:00,
2013-06-19 18:42:00,75.4,68.0,30.05,NW,315,0.0,2.0,78,0.00,,,0.01,meteohub,2013-06-19 22:42:00,
2013-06-19 18:47:00,75.2,68.2,30.05,NW,315,1.0,2.0,79,0.00,,,0.01,meteohub,2013-06-19 22:47:00,
2013-06-19 18:52:00,75.6,68.5,30.05,NW,315,1.0,2.0,79,0.00,,,0.01,meteohub,2013-06-19 22:52:00,
2013-06-19 18:57:00,75.6,68.5,30.06,North,0,1.0,2.0,79,0.00,,,0.01,meteohub,2013-06-19 22:57:00,
2013-06-19 19:02:00,75.6,68.5,30.06,North,0,1.0,3.0,79,0.00,,,0.01,meteohub,2013-06-19 23:02:00,
2013-06-19 19:07:00,75.6,68.5,30.06,North,0,1.0,3.0,79,0.00,,,0.01,meteohub,2013-06-19 23:07:00,
2013-06-19 19:12:00,75.4,68.4,30.06,West,270,0.0,2.0,79,0.00,,,0.01,meteohub,2013-06-19 23:12:00,
2013-06-19 19:17:00,75.4,68.4,30.06,West,270,1.0,2.0,79,0.00,,,0.01,meteohub,2013-06-19 23:17:00,
2013-06-19 19:22:00,75.0,68.0,30.06,North,0,2.0,2.0,79,0.00,,,0.01,meteohub,2013-06-19 23:22:00,
2013-06-19 19:27:00,74.8,68.2,30.06,North,0,1.0,2.0,80,0.00,,,0.01,meteohub,2013-06-19 23:27:00,
2013-06-19 19:32:00,74.7,67.6,30.06,NNE,23,2.0,2.0,79,0.00,,,0.01,meteohub,2013-06-19 23:32:00,
2013-06-19 19:37:00,74.3,67.3,30.06,West,270,2.0,2.0,79,0.00,,,0.01,meteohub,2013-06-19 23:37:00,
2013-06-19 19:42:00,73.9,67.1,30.06,West,270,2.0,2.0,79,0.00,,,0.01,meteohub,2013-06-19 23:42:00,
2013-06-19 19:47:00,73.8,67.3,30.06,West,270,1.0,2.0,80,0.00,,,0.01,meteohub,2013-06-19 23:47:00,
2013-06-19 19:52:00,73.4,67.3,30.06,NE,45,0.0,2.0,81,0.00,,,0.01,meteohub,2013-06-19 23:52:00,
2013-06-19 19:57:00,73.0,67.3,30.06,NE,45,1.0,2.0,82,0.00,,,0.01,meteohub,2013-06-19 23:57:00,
2013-06-19 20:02:00,72.7,66.9,30.06,NE,45,1.0,2.0,82,0.00,,,0.01,meteohub,2013-06-20 00:02:00,
2013-06-19 20:07:00,72.3,66.9,30.07,NE,45,0.0,2.0,83,0.00,,,0.01,meteohub,2013-06-20 00:07:00,
2013-06-19 20:12:00,72.0,66.9,30.07,NE,45,0.0,1.0,84,0.00,,,0.01,meteohub,2013-06-20 00:12:00,
2013-06-19 20:17:00,71.6,66.6,30.07,NE,45,1.0,1.0,84,0.00,,,0.01,meteohub,2013-06-20 00:17:00,
2013-06-19 20:22:00,71.2,66.2,30.08,NE,45,0.0,2.0,84,0.00,,,0.01,meteohub,2013-06-20 00:22:00,
2013-06-19 20:27:00,71.1,66.4,30.08,NE,45,1.0,2.0,85,0.00,,,0.01,meteohub,2013-06-20 00:27:00,
2013-06-19 20:32:00,70.9,66.2,30.08,NE,45,0.0,1.0,85,0.00,,,0.01,meteohub,2013-06-20 00:32:00,
2013-06-19 20:37:00,70.5,66.2,30.08,NE,45,0.0,1.0,86,0.00,,,0.01,meteohub,2013-06-20 00:37:00,
2013-06-19 20:42:00,70.2,66.0,30.08,NE,45,0.0,1.0,87,0.00,,,0.01,meteohub,2013-06-20 00:42:00,
2013-06-19 20:47:00,70.0,66.0,30.08,NE,45,0.0,0.0,87,0.00,,,0.01,meteohub,2013-06-20 00:47:00,
2013-06-19 20:52:00,69.6,65.7,30.08,NE,45,0.0,0.0,87,0.00,,,0.01,meteohub,2013-06-20 00:52:00,
2013-06-19 20:57:00,69.4,65.7,30.08,NE,45,1.0,0.0,88,0.00,,,0.01,meteohub,2013-06-20 00:57:00,
2013-06-19 21:02:00,69.3,65.5,30.08,NE,45,0.0,1.0,88,0.00,,,0.01,meteohub,2013-06-20 01:02:00,
2013-06-19 21:07:00,68.9,65.5,30.08,NE,45,0.0,1.0,89,0.00,,,0.01,meteohub,2013-06-20 01:07:00,
2013-06-19 21:12:00,68.7,65.3,30.09,NE,45,0.0,1.0,89,0.00,,,0.01,meteohub,2013-06-20 01:12:00,
2013-06-19 21:17:00,68.5,65.5,30.09,NE,45,0.0,1.0,90,0.00,,,0.01,meteohub,2013-06-20 01:17:00,
2013-06-19 21:22:00,68.4,65.3,30.09,NE,45,0.0,0.0,90,0.00,,,0.01,meteohub,2013-06-20 01:22:00,
2013-06-19 21:27:00,68.2,65.1,30.09,NE,45,0.0,0.0,90,0.00,,,0.01,meteohub,2013-06-20 01:27:00,
2013-06-19 21:32:00,68.0,64.9,30.09,NE,45,0.0,0.0,90,0.00,,,0.01,meteohub,2013-06-20 01:32:00,
2013-06-19 21:37:00,67.8,65.1,30.09,NE,45,0.0,0.0,91,0.00,,,0.01,meteohub,2013-06-20 01:37:00,
2013-06-19 21:42:00,67.5,64.8,30.10,NE,45,1.0,0.0,91,0.00,,,0.01,meteohub,2013-06-20 01:42:00,
2013-06-19 21:47:00,67.5,65.1,30.10,NE,45,0.0,1.0,92,0.00,,,0.01,meteohub,2013-06-20 01:47:00,
2013-06-19 21:52:00,67.3,64.9,30.10,NE,45,0.0,1.0,92,0.00,,,0.01,meteohub,2013-06-20 01:52:00,
2013-06-19 21:57:00,67.1,64.8,30.10,NE,45,0.0,1.0,92,0.00,,,0.01,meteohub,2013-06-20 01:57:00,
2013-06-19 22:02:00,66.7,64.4,30.11,NE,45,0.0,1.0,92,0.00,,,0.01,meteohub,2013-06-20 02:02:00,
2013-06-19 22:07:00,66.6,64.2,30.11,NE,45,0.0,1.0,92,0.00,,,0.01,meteohub,2013-06-20 02:07:00,
2013-06-19 22:12:00,66.6,64.4,30.11,NE,45,1.0,1.0,93,0.00,,,0.01,meteohub,2013-06-20 02:12:00,
2013-06-19 22:17:00,66.6,64.4,30.11,NE,45,0.0,1.0,93,0.00,,,0.01,meteohub,2013-06-20 02:17:00,
2013-06-19 22:22:00,66.4,64.2,30.12,NE,45,0.0,1.0,93,0.00,,,0.01,meteohub,2013-06-20 02:22:00,
2013-06-19 22:27:00,66.4,64.2,30.11,NE,45,0.0,1.0,93,0.00,,,0.01,meteohub,2013-06-20 02:27:00,
2013-06-19 22:32:00,66.2,64.0,30.12,NE,45,0.0,0.0,93,0.00,,,0.01,meteohub,2013-06-20 02:32:00,
2013-06-19 22:37:00,66.0,64.2,30.12,NE,45,0.0,0.0,94,0.00,,,0.01,meteohub,2013-06-20 02:37:00,
2013-06-19 22:42:00,66.0,64.2,30.12,NE,45,0.0,0.0,94,0.00,,,0.01,meteohub,2013-06-20 02:42:00,
2013-06-19 22:47:00,66.0,64.2,30.12,NE,45,0.0,0.0,94,0.00,,,0.01,meteohub,2013-06-20 02:47:00,
2013-06-19 22:52:00,65.8,64.0,30.12,NE,45,0.0,0.0,94,0.00,,,0.01,meteohub,2013-06-20 02:52:00,
2013-06-19 22:57:00,65.7,63.9,30.12,NE,45,0.0,0.0,94,0.00,,,0.01,meteohub,2013-06-20 02:57:00,
2013-06-19 23:02:00,65.7,63.9,30.12,NE,45,0.0,0.0,94,0.00,,,0.01,meteohub,2013-06-20 03:02:00,
2013-06-19 23:07:00,65.5,63.7,30.12,NE,45,0.0,0.0,94,0.00,,,0.01,meteohub,2013-06-20 03:07:00,
2013-06-19 23:12:00,65.3,63.9,30.12,NE,45,0.0,0.0,95,0.00,,,0.01,meteohub,2013-06-20 03:12:00,
2013-06-19 23:17:00,65.3,63.5,30.13,NE,45,0.0,0.0,94,0.00,,,0.01,meteohub,2013-06-20 03:17:00,
2013-06-19 23:22:00,65.1,63.7,30.12,NE,45,0.0,0.0,95,0.00,,,0.01,meteohub,2013-06-20 03:22:00,
2013-06-19 23:27:00,65.1,63.7,30.12,NE,45,0.0,0.0,95,0.00,,,0.01,meteohub,2013-06-20 03:27:00,
2013-06-19 23:32:00,65.1,63.7,30.13,NE,45,0.0,0.0,95,0.00,,,0.01,meteohub,2013-06-20 03:32:00,
2013-06-19 23:37:00,65.1,63.7,30.12,NE,45,0.0,0.0,95,0.00,,,0.01,meteohub,2013-06-20 03:37:00,
2013-06-19 23:42:00,64.9,63.5,30.12,NE,45,0.0,1.0,95,0.00,,,0.01,meteohub,2013-06-20 03:42:00,
2013-06-19 23:47:00,64.8,63.3,30.12,NE,45,0.0,1.0,95,0.00,,,0.01,meteohub,2013-06-20 03:47:00,
2013-06-19 23:52:00,64.8,63.3,30.13,NE,45,0.0,1.0,95,0.00,,,0.01,meteohub,2013-06-20 03:52:00,
2013-06-19 23:57:00,64.6,63.1,30.13,NE,45,0.0,1.0,95,0.00,,,0.01,meteohub,2013-06-20 03:57:00,